Home   Weather   Verona   Past weeks

Flag for Italy Past Weather in Verona, Italy — Yesterday and Last 2 Weeks

Now
70 °F

Passing clouds.


Feels Like: 70 °F
Forecast: 62 / 86 °F
Wind: 2 mph from North

Location: Verona / Villafranca

Current Time: Aug 31, 2016 at 2:28:45 AM

Latest Report: Aug 31, 2016 at 1:50 AM


Visibility: N/A

Pressure: 30.12 "Hg

Humidity: 78%

Dew Point: 63 °F

Location of VeronaLocation

Past Weather in Verona — Graph

°F

Verona Temperature Yesterday

Maximum temperature yesterday: 84 °F (at 2:50 PM)
Minimum temperature yesterday: 70 °F (at 3:20 AM)
Average temperature yesterday: 76 °F

High & Low Weather Summary for the Past Weeks

 TemperatureHumidityPressure
High90 °F (Aug 28, 6:50 PM)100% (Aug 17, 5:50 AM)30.27 "Hg (Aug 17, 5:50 AM)
Low50 °F (Aug 17, 5:50 AM)35% (Aug 23, 3:20 PM)29.77 "Hg (Aug 17, 3:50 PM)
Average74 °F69%30.04 "Hg
* Reported Aug 16 12:20 AM — Aug 31 12:50 AM, Verona, Weather by CustomWeather, © 2016

Note: Actual official high and low records may vary slightly from our data, if they occured in-between our weather recording intervals... More about our weather records

Advertising

Verona Weather History for the Previous 24 Hours

Scroll right to see more
 ConditionsComfort  
Time TempWeatherWind HumidityBarometerVisibility
12:50 AM
Wed, Aug 31
72 °FPassing clouds.2 mph73%30.12 "HgN/A
12:20 AM72 °FPassing clouds.3 mph73%30.12 "HgN/A
11:50 PM
Tue, Aug 30
72 °FPassing clouds.3 mph78%30.12 "HgN/A
11:20 PM72 °FPassing clouds.3 mph78%30.12 "HgN/A
10:50 PM72 °FPassing clouds.3 mph78%30.12 "HgN/A
10:20 PM72 °FPassing clouds.6 mph78%30.12 "HgN/A
9:50 PM72 °FPassing clouds.5 mph83%30.12 "HgN/A
9:20 PM72 °FPassing clouds.5 mph78%30.12 "HgN/A
8:50 PM73 °FPassing clouds.5 mph78%30.12 "HgN/A
8:20 PM73 °FPassing clouds.6 mph74%30.09 "HgN/A
7:50 PM77 °FPassing clouds.2 mph57%30.09 "HgN/A
7:20 PM81 °FPassing clouds.3 mph51%30.07 "HgN/A
6:50 PM81 °FPassing clouds.6 mph51%30.07 "HgN/A
6:20 PM81 °FScattered clouds.7 mph48%30.09 "HgN/A
5:50 PM82 °FScattered clouds.7 mph45%30.09 "HgN/A
5:20 PM82 °FScattered clouds.8 mph45%30.09 "HgN/A
4:50 PM82 °FScattered clouds.9 mph45%30.09 "HgN/A
4:20 PM84 °FPassing clouds.8 mph45%30.09 "HgN/A
3:50 PM82 °FScattered clouds.7 mph48%30.09 "HgN/A
3:20 PM84 °FScattered clouds.9 mph45%30.09 "HgN/A
2:50 PM84 °FPassing clouds.8 mph43%30.12 "HgN/A
2:20 PM82 °FPassing clouds.12 mph45%30.12 "HgN/A
1:50 PM82 °FScattered clouds.9 mph51%30.12 "HgN/A
1:20 PM81 °FPartly sunny.12 mph48%30.12 "HgN/A
12:50 PM81 °FPartly sunny.10 mph48%30.12 "HgN/A
12:20 PM81 °FScattered clouds.12 mph48%30.12 "HgN/A
11:50 AM79 °FScattered clouds.6 mph61%30.12 "HgN/A
11:20 AM77 °FScattered clouds.3 mph69%30.12 "HgN/A
10:50 AM77 °FPartly sunny.1 mph69%30.12 "HgN/A
10:20 AM75 °FPartly sunny.5 mph74%30.12 "HgN/A
9:50 AM75 °FPartly sunny.2 mph74%30.09 "HgN/A
9:20 AM73 °FPartly sunny.2 mph74%30.09 "HgN/A
8:50 AM72 °FPartly sunny.1 mph83%30.09 "HgN/A
8:20 AM70 °FPartly sunny.2 mph88%30.07 "HgN/A
7:50 AM70 °FPartly sunny.3 mph88%30.07 "HgN/A
7:20 AM70 °FPassing clouds.5 mph83%30.07 "HgN/A
6:50 AM70 °FPassing clouds.5 mph83%30.04 "HgN/A
6:20 AM70 °FPassing clouds.3 mph83%30.04 "HgN/A
5:50 AM70 °FPassing clouds.5 mph83%30.04 "HgN/A
5:20 AM70 °FPassing clouds.3 mph83%30.04 "HgN/A
4:50 AM70 °FPassing clouds.3 mph83%30.04 "HgN/A
4:20 AM70 °FPassing clouds.3 mph88%30.04 "HgN/A
3:50 AM70 °FRain. Passing clouds.2 mph94%30.04 "HgN/A
3:20 AM70 °FRain. Passing clouds.6 mph88%30.04 "HgN/A
2:50 AM72 °FThunderstorms. Passing clouds.5 mph78%30.04 "Hg5 mi
2:20 AM75 °FThunderstorms. Passing clouds.5 mph65%30.04 "Hg5 mi
Weather by CustomWeather, © 2016

See weather overviewHow to use our weather pages